Location: Bacharowice
(49.9333°N, 19.5833°E)
Time: 08:59:17
(UTC+00:00)

Envisat - Pass Details

Date: 04 October 2022
Orbit: 763 x 765 km, 98.2° (Epoch: 01 December)

Event Time Altitude Azimuth Distance (km) Brightness Sun altitude
Rises 01:40:26 0° 28° (NNE) 3,245 7.1 -29.4°
Reaches altitude 10° 01:43:46 10° 51° (NE) 2,313 6.4 -29.0°
Maximum altitude 01:46:42 15° 87° (E) 1,964 5.8 -28.6°
Drops below altitude 10° 01:49:37 10° 122° (ESE) 2,302 5.8 -28.1°
Sets 01:52:55 0° 145° (SE) 3,221 6.3 -27.7°
